MFX5501 UZTT-LTAI

Flight info

Callsign MFX5501
Flight time N/A
Altitude 36000
Route DIBAD2A DIBAD N193 OGOLI T898 DARVA/N0468F360 B476 NEBIT/N0468F380 B476 METKA L88 RASAM N199 LUSAL M11 EDATA N161 INDUR UB374 ERZ UA4 SIV UT54 HALIL/N0476F370 UW77 HISAR LTAI/36C
Aircraft A333/H-SDE3GHIJ2J3J5M1RVWXY/LB2D1

Departure

Time N/A
Airport Tashkent International Airport (UZTT)

Arrival

Time 2026-05-03 20:17
Airport Antalya International Airport (LTAI)
Time Latitude Longitude Altitude Speed Heading
2026-05-03 20:15 36.84295 30.78497 1042 ft 128 kts
2026-05-03 20:15 36.85183 30.78622 870 ft 129 kts
2026-05-03 20:15 36.86076 30.78736 684 ft 129 kts
2026-05-03 20:15 36.86978 30.78844 516 ft 129 kts
2026-05-03 20:16 36.87877 30.78979 343 ft 128 kts
2026-05-03 20:16 36.88772 30.79103 195 ft 126 kts
2026-05-03 20:16 36.89491 30.79194 189 ft 73 kts
2026-05-03 20:16 36.89894 30.79249 189 ft 56 kts
2026-05-03 20:17 36.90209 30.79294 189 ft 42 kts
2026-05-03 20:17 36.90353 30.79369 189 ft 14 kts 34°
2026-05-03 20:17 36.90401 30.79413 189 ft 2 kts 36°
2026-05-03 20:17 36.90452 30.79459 189 ft 14 kts 36°
2026-05-03 20:18 36.90461 30.79468 189 ft 0 kts 36°
2026-05-03 20:18 36.90465 30.79471 189 ft 0 kts 36°
2026-05-03 20:18 36.90467 30.79473 189 ft 0 kts 36°
2026-05-03 20:18 36.90470 30.79476 189 ft 1 kts 36°
2026-05-03 20:19 36.90477 30.79482 189 ft 1 kts 36°
2026-05-03 20:19 36.90485 30.79490 189 ft 1 kts 36°
2026-05-03 20:19 36.90489 30.79493 189 ft 0 kts 36°
2026-05-03 20:19 36.90490 30.79496 189 ft 3 kts 53°
2026-05-03 20:20 36.90459 30.79539 189 ft 9 kts 166°
2026-05-03 20:20 36.90394 30.79537 189 ft 9 kts 185°
2026-05-03 20:20 36.90325 30.79528 189 ft 9 kts 186°
2026-05-03 20:20 36.90255 30.79519 189 ft 10 kts 186°
2026-05-03 20:21 36.90184 30.79509 189 ft 10 kts 186°
2026-05-03 20:21 36.90112 30.79499 189 ft 10 kts 186°
2026-05-03 20:21 36.90039 30.79489 189 ft 10 kts 186°
2026-05-03 20:21 36.89964 30.79479 189 ft 10 kts 186°
2026-05-03 20:22 36.89889 30.79469 189 ft 10 kts 186°
2026-05-03 20:22 36.89811 30.79457 189 ft 11 kts 187°
2026-05-03 20:22 36.89735 30.79448 189 ft 10 kts 186°
2026-05-03 20:22 36.89673 30.79478 189 ft 10 kts 116°
2026-05-03 20:23 36.89661 30.79568 189 ft 10 kts 97°
2026-05-03 20:23 36.89653 30.79659 189 ft 10 kts 96°
2026-05-03 20:23 36.89644 30.79751 189 ft 10 kts 96°
2026-05-03 20:23 36.89637 30.79844 189 ft 10 kts 96°
2026-05-03 20:24 36.89629 30.79937 189 ft 10 kts 96°
2026-05-03 20:24 36.89619 30.80029 189 ft 10 kts 97°
2026-05-03 20:24 36.89611 30.80123 189 ft 10 kts 96°
2026-05-03 20:24 36.89641 30.80164 189 ft 6 kts 12°
2026-05-03 20:25 36.89674 30.80163 189 ft 1 kts 354°
2026-05-03 20:25 36.89687 30.80161 189 ft 1 kts 353°
2026-05-03 20:25 36.89691 30.80160 189 ft 0 kts 353°